#timestamp,LO_Frequency,Hit,StdDev 
1531692015.5,286047000.1,N
1531692035.3,286047000.1,N
1531692055.1,286047001.0,N
1531692075.9,286047000.6,N
1531692095.7,286047001.1,N
1531692115.5,286046999.9,N
1531692135.4,286047002.3,N
1531692155.2,286047002.0,N
1531692175.1,286047003.7,N
1531692176.0,286047003.7,N
1531692195.8,286047003.7,N
1531692215.6,286047001.8,N
1531692235.5,286047002.7,N
1531692255.3,286047002.8,N
1531692275.1,286047001.4,N
1531692295.9,286047003.9,N
1531692315.7,286047003.9,N
1531692335.6,286047001.5,N
1531692355.4,286047002.0,N
1531692375.2,286047002.6,N
1531692395.1,286047000.3,N
1531692396.0,286047000.3,N
1531692415.8,286047000.0,N
1531692435.6,286047000.6,N
1531692455.5,286047000.9,N
1531692475.3,286046999.7,N
1531692495.2,286047002.7,N
1531692515.9,286047000.6,N
1531692535.7,286047000.1,N
1531692555.6,286047000.6,N
1531692575.4,286047002.2,N
1531692595.2,286047002.4,N
1531692615.1,286047001.6,N
1531692616.0,286047001.6,N
1531692635.8,286046999.7,N
1531692655.7,286047001.6,N
1531692675.5,286047004.1,Y
1531692695.3,286047002.2,P
1531692715.2,286047000.6,N
1531692735.0,286047002.5,P
1531692735.9,286047002.5,Y
1531692755.7,286047001.1,P
1531692775.6,286046998.6,P
1531692795.4,286047001.1,N
1531692815.3,286047001.0,N
1531692835.1,286047000.7,N
1531692836.0,286047000.7,N
1531692855.8,286046999.8,N
1531692875.7,286047002.8,Y
1531692895.5,286047001.0,P
1531692915.4,286047000.8,P
1531692935.2,286047000.9,P
1531692955.0,286047001.8,Y
1531692955.9,286047001.8,P
1531692975.8,286047002.3,P
1531692995.6,286047000.5,N
1531693015.5,286047000.4,N
1531693035.3,286047001.1,N
1531693055.1,286046998.8,N
1531693075.9,286046996.9,Y
1531693095.7,286046997.5,P
1531693115.5,286046995.3,N
1531693135.4,286046997.8,N
1531693155.2,286046995.8,N
1531693175.1,286046996.3,N
1531693176.0,286046996.3,N
1531693195.8,286046996.4,N
1531693215.6,286046996.0,N
1531693235.5,286046995.6,N
1531693255.3,286046995.3,Y
1531693275.1,286047000.7,P
1531693295.9,286047001.2,N
1531693315.7,286047001.2,N
1531693335.6,286047000.7,N
1531693355.4,286046998.6,N
1531693375.2,286046999.3,N
1531693395.1,286047000.8,N
1531693396.0,286047000.8,N
1531693415.8,286047000.5,N
1531693435.7,286047000.1,N
1531693455.5,286047000.7,N
1531693475.3,286047001.2,N
1531693495.2,286047000.8,N
1531693515.0,286046998.5,N
1531693515.9,286046998.5,N
1531693535.7,286046998.1,N
1531693555.6,286047001.0,N
1531693575.4,286046998.1,N
1531693595.3,286047001.0,N
1531693615.1,286047000.0,N
1531693616.0,286047000.0,N
1531693635.8,286047000.5,N
1531693655.7,286047000.7,N
1531693675.5,286046998.6,N
1531693695.3,286047000.7,N
1531693715.2,286046999.8,N
1531693735.0,286046999.9,N
1531693735.9,286046999.9,N
1531693755.8,286046998.5,N
1531693775.6,286047001.0,N
1531693795.4,286047000.3,N
1531693815.3,286047001.1,N
1531693835.1,286046998.7,N
1531693855.9,286046998.9,N
1531693875.7,286046998.6,N
1531693895.5,286046998.6,N
1531693915.4,286046998.2,N
1531693935.2,286046998.2,N
1531693955.0,286046999.3,N
1531693955.9,286046999.3,N
1531693975.8,286047001.1,N
1531693995.6,286047000.6,N
1531694015.5,286047000.8,N
1531694035.3,286047001.1,N
1531694055.1,286047001.0,N
1531694075.9,286046999.9,N
1531694095.7,286046999.8,N
1531694115.5,286047000.4,N
1531694135.4,286047002.2,N
1531694155.2,286047000.1,N
1531694175.1,286047001.5,N
1531694176.0,286047001.5,N
1531694195.8,286046999.7,N
1531694215.6,286047000.9,N
1531694235.5,286047000.3,N
1531694255.3,286046998.8,N
1531694275.1,286046998.3,N
1531694295.9,286047000.1,N
1531694315.7,286046998.6,N
1531694335.6,286047000.9,N
1531694355.4,286047000.4,N
1531694375.2,286047000.8,N
1531694395.1,286046998.4,N
1531694396.0,286046998.4,N
1531694415.8,286046998.5,N
1531694435.6,286047000.8,N
1531694455.5,286047001.1,N
1531694475.3,286046998.7,N
1531694495.2,286046996.9,N
1531694515.9,286046996.9,N
1531694535.7,286046999.3,N
1531694555.6,286046999.6,N
1531694575.4,286046996.5,N
1531694595.2,286046997.0,N
1531694615.1,286046997.2,N
1531694616.0,286046997.2,N
1531694635.8,286046997.7,N
1531694655.7,286046999.5,N
1531694675.5,286047001.0,N
1531694695.3,286047000.8,N
1531694715.2,286047000.9,N
1531694735.0,286046998.4,N
1531694735.9,286046998.4,N
1531694755.8,286046998.3,N
1531694775.6,286046998.7,N
1531694795.4,286046998.7,N
1531694815.3,286046998.3,N
1531694835.1,286046998.8,N
1531694855.8,286046999.5,N
1531694875.7,286046996.7,N
1531694895.5,286046996.7,N
1531694915.4,286046996.7,N
1531694935.2,286046996.7,N
1531694955.0,286046996.7,N
1531694955.9,286046996.7,N
1531694975.8,286046996.8,N
1531694995.6,286046996.8,N
1531695015.4,286046999.3,N
1531695035.3,286046998.4,N
1531695055.1,286046999.0,N
1531695075.9,286046999.6,N
1531695095.7,286046998.7,N
1531695115.5,286046998.8,N
1531695135.4,286046998.6,N
1531695155.2,286046998.8,N
1531695175.0,286046999.5,N
1531695175.9,286046999.5,N
1531695195.8,286046996.8,N
1531695215.6,286046998.8,N
1531695235.5,286046999.0,N
1531695255.3,286046999.5,N
1531695275.1,286046997.2,N
1531695295.9,286046997.7,N
1531695315.7,286046997.8,N
1531695335.5,286046997.8,N
1531695355.4,286046998.5,N
1531695375.2,286046999.2,N
1531695395.1,286046997.1,N
1531695396.0,286046997.1,N
1531695415.8,286046997.0,N
1531695435.6,286046996.6,Y
1531695455.5,286047000.9,P
1531695475.3,286047000.5,N
1531695495.2,286047001.3,N
1531695515.9,286047002.3,N
1531695535.7,286047001.6,N
1531695555.6,286047002.5,N
1531695575.4,286047002.8,N
1531695595.2,286046999.7,N
